C/2018 N2 ( ASASSN )

Japanese version
Home page
Updated on October 14, 2019

---------------------------------------------------------------------

* Profile

Discovery Date July 7, 2018
Magnitude 16.4 mag
Discoverer All-Sky Automated Survey for Supernovae (ASASSN) program

* Pictures

* Orbital Elements

Epoch 2019 Nov. 13.0 TT = JDT 2458800.5
T 2019 Nov. 10.95812 TT                                 Williams
q   3.1246546            (2000.0)            P               Q
z  -0.0000648      Peri.   24.39528     +0.78558853     -0.45743969
 +/-0.0000007      Node    25.25937     +0.27012270     -0.35227340
e   1.0002025      Incl.   77.53178     +0.55667261     +0.81648784
From 679 observations 2018 July 11-2019 Aug. 24, mean residual 0".4.

* Finding Charts

* Magnitudes Graph

        m1 = 5.5 + 5 log d + 8.0 log r

---------------------------------------------------------------------

The orbital elements are published on M.P.E.C. 2019-Q135.
The charts are made with StellaNavigator Ver.10 (AstroArts).
The magnitudes graphs are made with Comet for Windows.

---------------------------------------------------------------------

Copyright(C) Seiichi Yoshida (comet@aerith.net). All rights reserved.